GW6872 Weather Reports


Display with metric or nautical units.
time (UTC)temp
F
wind
direction
speed
MPH
gust
MPH
rain 1hr
in
rain 24hr
in
rain mn
in
humidity
%
barometer
mb
20260507234419 51 277 0.0 0.0 0.00 0.00 0.00 80 1010.5
20260507233919 51 292 0.0 0.0 0.00 0.00 0.00 81 1010.5
20260507233418 51 306 0.0 0.0 0.00 0.00 0.00 80 1010.2
20260507232919 51 280 0.0 1.0 0.00 0.00 0.00 80 1010.2
20260507232420 51 298 0.0 0.0 0.00 0.00 0.00 80 1010.2
20260507231918 52 278 0.0 1.0 0.00 0.00 0.00 79 1010.2
20260507231419 52 232 0.0 0.0 0.00 0.00 0.00 79 1010.2
20260507230919 52 4 1.0 1.0 0.00 0.00 0.00 78 1010.5
20260507230419 52 228 0.0 0.0 0.00 0.00 0.00 79 1010.5
20260507225918 52 260 0.0 0.0 0.00 0.00 0.00 78 1010.5
20260507225025 52 301 0.0 2.0 0.00 0.00 0.00 78 1010.5
20260507224418 53 301 0.0 1.0 0.00 0.00 0.00 77 1010.5
20260507223919 53 283 0.0 1.0 0.00 0.00 0.00 77 1010.5
20260507223419 53 320 0.0 1.0 0.00 0.00 0.00 77 1010.8
20260507222919 53 304 0.0 1.0 0.00 0.00 0.00 77 1010.8
20260507222419 53 330 0.0 1.0 0.00 0.00 0.00 77 1010.5
20260507221919 53 294 0.0 1.0 0.00 0.00 0.00 76 1010.5
20260507221419 53 273 0.0 1.0 0.00 0.00 0.00 76 1010.5
20260507220919 53 302 0.0 1.0 0.00 0.00 0.00 75 1010.5
20260507220419 53 293 0.0 1.0 0.00 0.00 0.00 75 1010.8
20260507215919 53 310 0.0 0.0 0.00 0.00 0.00 75 1010.8
20260507215418 53 323 0.0 0.0 0.00 0.00 0.00 75 1010.5
20260507214918 53 317 0.0 0.0 0.00 0.00 0.00 76 1010.5
20260507214418 53 329 0.0 0.0 0.00 0.00 0.00 76 1010.5
20260507213919 53 341 0.0 1.0 0.00 0.00 0.00 75 1010.8
20260507213419 53 344 0.0 0.0 0.00 0.00 0.00 75 1010.5
20260507212919 53 267 0.0 0.0 0.00 0.00 0.00 76 1010.8
20260507212421 53 344 1.0 1.0 0.00 0.00 0.00 75 1010.8
20260507211918 53 21 0.0 1.0 0.00 0.00 0.00 76 1010.8
20260507211419 53 5 1.0 2.0 0.00 0.00 0.00 75 1010.8
20260507210918 53 359 1.0 2.0 0.00 0.00 0.00 75 1010.5
20260507210418 53 314 0.0 3.0 0.00 0.00 0.00 74 1010.5
20260507205918 54 244 0.0 0.0 0.00 0.00 0.00 74 1010.5
20260507205418 53 315 0.0 1.0 0.00 0.00 0.00 74 1010.5
20260507204920 54 302 0.0 1.0 0.00 0.00 0.00 74 1010.5
20260507204419 53 313 0.0 1.0 0.00 0.00 0.00 74 1010.2
20260507203920 54 262 1.0 2.0 0.00 0.00 0.00 73 1010.2
20260507203418 53 266 1.0 1.0 0.00 0.00 0.00 73 1010.2
20260507202922 53 28 1.0 2.0 0.00 0.00 0.00 73 1010.2
20260507202419 53 298 1.0 3.0 0.00 0.00 0.00 73 1010.2
20260507201923 54 322 1.0 2.0 0.00 0.00 0.00 72 1010.2
20260507201420 54 17 0.0 2.0 0.00 0.00 0.00 72 1009.8
20260507200920 54 314 2.0 3.0 0.00 0.00 0.00 72 1009.8
20260507195931 54 349 1.0 2.0 0.00 0.00 0.00 71 1009.8
20260507195421 54 316 1.0 2.0 0.00 0.00 0.00 71 1009.8
20260507194918 55 158 0.0 2.0 0.00 0.00 0.00 70 1009.8
20260507194418 55 347 1.0 1.0 0.00 0.00 0.00 70 1009.8
20260507193919 55 303 2.0 3.0 0.00 0.00 0.00 70 1009.8
20260507193421 55 60 0.0 2.0 0.00 0.00 0.00 70 1009.5
20260507192920 55 312 2.0 3.0 0.00 0.00 0.00 70 1009.5
20260507192419 55 228 0.0 5.0 0.00 0.00 0.00 70 1009.8
20260507191923 55 335 2.0 2.0 0.00 0.00 0.00 70 1009.8
20260507191419 55 43 1.0 2.0 0.00 0.00 0.00 70 1009.5
20260507190918 55 305 0.0 1.0 0.00 0.00 0.00 70 1009.8
20260507190419 55 134 3.0 3.0 0.00 0.00 0.00 70 1009.5
20260507185919 55 336 2.0 6.0 0.00 0.00 0.00 70 1009.5
20260507184950 56 330 3.0 3.0 0.00 0.00 0.00 69 1009.5
20260507184423 56 319 1.0 6.0 0.00 0.00 0.00 68 1009.8
20260507183923 56 357 1.0 2.0 0.00 0.00 0.00 67 1009.5
20260507183423 56 298 0.0 2.0 0.00 0.00 0.00 68 1009.5
20260507182922 56 98 0.0 6.0 0.00 0.00 0.00 68 1009.8
20260507182418 56 344 1.0 2.0 0.00 0.00 0.00 68 1009.5
20260507181918 56 313 3.0 3.0 0.00 0.00 0.00 67 1009.5
20260507181419 57 272 3.0 6.0 0.00 0.00 0.00 67 1009.5
20260507180925 57 95 0.0 2.0 0.00 0.00 0.00 67 1009.5
20260507180418 57 4 1.0 6.0 0.00 0.00 0.00 67 1009.5
20260507175922 57 296 2.0 3.0 0.00 0.00 0.00 67 1009.5
20260507175422 57 85 1.0 3.0 0.00 0.00 0.00 67 1009.5
20260507174921 57 7 1.0 1.0 0.00 0.00 0.00 66 1009.5
20260507174419 57 318 3.0 5.0 0.00 0.00 0.00 65 1009.1
20260507173921 57 209 1.0 3.0 0.00 0.00 0.00 65 1009.1
20260507173418 57 206 1.0 2.0 0.00 0.00 0.00 65 1009.5
20260507172920 57 87 3.0 3.0 0.00 0.00 0.00 64 1009.1
20260507172418 58 318 2.0 3.0 0.00 0.00 0.00 63 1009.1
20260507171919 58 224 0.0 1.0 0.00 0.00 0.00 63 1009.5
20260507171421 57 71 0.0 3.0 0.00 0.00 0.00 64 1009.1
20260507170919 58 16 1.0 6.0 0.00 0.00 0.00 63 1009.1
20260507170420 58 219 2.0 6.0 0.00 0.00 0.00 62 1009.5
20260507165923 58 342 2.0 5.0 0.00 0.00 0.00 62 1009.1
20260507165424 58 89 1.0 5.0 0.00 0.00 0.00 62 1009.1
20260507164921 58 18 1.0 3.0 0.00 0.00 0.00 62 1009.1
20260507164420 59 14 3.0 5.0 0.00 0.00 0.00 61 1009.1
20260507163922 59 205 1.0 1.0 0.00 0.00 0.00 60 1009.1
20260507163422 58 294 0.0 5.0 0.00 0.00 0.00 60 1009.1
20260507162921 59 283 1.0 3.0 0.00 0.00 0.00 57 1009.1
20260507162422 59 281 2.0 6.0 0.00 0.00 0.00 56 1009.1
20260507161919 61 333 2.0 5.0 0.00 0.00 0.00 53 1009.1
20260507161418 60 286 0.0 1.0 0.00 0.00 0.00 55 1009.5
20260507160921 59 326 0.0 3.0 0.00 0.00 0.00 57 1009.1
20260507160422 59 335 1.0 6.0 0.00 0.00 0.00 56 1009.1
20260507155920 59 193 2.0 2.0 0.00 0.00 0.00 53 1009.5
20260507155421 58 220 1.0 3.0 0.00 0.00 0.00 55 1009.5
20260507154922 58 223 1.0 3.0 0.00 0.00 0.00 56 1009.5
20260507154418 59 50 1.0 6.0 0.00 0.00 0.00 56 1009.1
20260507153918 60 283 2.0 3.0 0.00 0.00 0.00 55 1009.5
20260507153420 59 76 1.0 2.0 0.00 0.00 0.00 56 1009.5
20260507152920 60 227 0.0 2.0 0.00 0.00 0.00 55 1009.1
20260507152423 60 219 0.0 2.0 0.00 0.00 0.00 55 1009.5
20260507151919 60 284 0.0 1.0 0.00 0.00 0.00 54 1009.5
20260507151423 61 75 1.0 2.0 0.00 0.00 0.00 52 1009.5
20260507150918 62 321 1.0 2.0 0.00 0.00 0.00 52 1009.5
20260507150421 64 318 0.0 5.0 0.00 0.00 0.00 50 1009.1
20260507145923 63 299 0.0 1.0 0.00 0.00 0.00 51 1009.1
20260507145422 61 82 0.0 2.0 0.00 0.00 0.00 54 1009.5
20260507144922 61 254 0.0 3.0 0.00 0.00 0.00 55 1009.5
20260507144418 61 248 3.0 5.0 0.00 0.00 0.00 54 1009.5
20260507143442 62 130 0.0 1.0 0.00 0.00 0.00 53 1009.1
20260507142918 63 33 0.0 2.0 0.00 0.00 0.00 53 1009.5
20260507142418 60 326 0.0 1.0 0.00 0.00 0.00 56 1009.5
20260507141927 58 350 1.0 2.0 0.00 0.00 0.00 59 1009.5
20260507141421 58 60 0.0 3.0 0.00 0.00 0.00 60 1009.5
20260507140923 58 359 2.0 3.0 0.00 0.00 0.00 61 1009.5
20260507140422 57 190 2.0 3.0 0.00 0.00 0.00 61 1009.8
20260507135919 57 308 2.0 5.0 0.00 0.00 0.00 62 1009.8
20260507135422 57 238 1.0 2.0 0.00 0.00 0.00 62 1009.8
20260507134433 58 325 1.0 2.0 0.00 0.00 0.00 60 1009.8
20260507133922 58 250 0.0 2.0 0.00 0.00 0.00 61 1009.8
20260507133421 59 307 0.0 2.0 0.00 0.00 0.00 60 1009.8
20260507132923 59 327 1.0 3.0 0.00 0.00 0.00 60 1009.8
20260507132421 60 88 0.0 0.0 0.00 0.00 0.00 59 1009.8
20260507131924 60 233 0.0 0.0 0.00 0.00 0.00 59 1009.8
20260507131420 60 224 0.0 1.0 0.00 0.00 0.00 59 1009.8
20260507130924 60 228 0.0 1.0 0.00 0.00 0.00 58 1009.8
20260507130420 60 78 0.0 1.0 0.00 0.00 0.00 58 1009.8
20260507125922 60 240 0.0 0.0 0.00 0.00 0.00 58 1009.8
20260507125423 60 17 0.0 1.0 0.00 0.00 0.00 58 1009.8
20260507124921 60 205 0.0 1.0 0.00 0.00 0.00 58 1009.8
20260507124421 59 280 0.0 0.0 0.00 0.00 0.00 59 1009.8
20260507123918 58 246 0.0 0.0 0.00 0.00 0.00 61 1010.2
20260507123421 57 264 0.0 1.0 0.00 0.00 0.00 61 1010.2
20260507122919 57 271 0.0 0.0 0.00 0.00 0.00 62 1009.8
20260507122418 57 319 1.0 1.0 0.00 0.00 0.00 63 1010.2
20260507121923 56 214 0.0 0.0 0.00 0.00 0.00 64 1009.8
20260507121419 56 225 2.0 2.0 0.00 0.00 0.00 64 1009.8
20260507120920 56 235 0.0 2.0 0.00 0.00 0.00 64 1009.8
20260507120423 57 304 0.0 2.0 0.00 0.00 0.00 62 1010.2
20260507115922 57 183 0.0 0.0 0.00 0.00 0.00 63 1009.8
20260507115422 56 249 0.0 0.0 0.00 0.00 0.00 64 1010.2
20260507114923 56 283 0.0 0.0 0.00 0.00 0.00 63 1010.2
20260507114418 56 333 0.0 0.0 0.00 0.00 0.00 64 1010.2
20260507113920 56 239 0.0 0.0 0.00 0.00 0.00 64 1010.2
20260507113422 56 311 0.0 0.0 0.00 0.00 0.00 64 1010.2
20260507112918 56 279 0.0 0.0 0.00 0.00 0.00 64 1010.2
20260507112418 56 296 0.0 1.0 0.00 0.00 0.00 63 1010.2
20260507111920 56 292 0.0 2.0 0.00 0.00 0.00 63 1010.2
20260507111419 56 319 0.0 1.0 0.00 0.00 0.00 62 1010.2
20260507110922 57 283 1.0 2.0 0.00 0.00 0.00 61 1010.2
20260507110421 57 146 0.0 1.0 0.00 0.00 0.00 60 1010.2
20260507105919 57 45 0.0 0.0 0.00 0.00 0.00 60 1009.8
20260507105419 58 198 0.0 1.0 0.00 0.00 0.00 60 1010.2
20260507104921 57 227 0.0 1.0 0.00 0.00 0.00 60 1010.2
20260507104420 57 60 0.0 0.0 0.00 0.00 0.00 61 1010.2
20260507103919 57 337 1.0 3.0 0.00 0.00 0.00 61 1010.2
20260507103419 57 256 0.0 3.0 0.00 0.00 0.00 61 1010.2
20260507102918 57 141 1.0 2.0 0.00 0.00 0.00 61 1010.2
20260507102422 57 205 0.0 0.0 0.00 0.00 0.00 62 1010.2
20260507101919 57 88 1.0 2.0 0.00 0.00 0.00 61 1010.2
20260507101419 57 310 0.0 1.0 0.00 0.00 0.00 61 1010.5
20260507100919 58 331 1.0 3.0 0.00 0.00 0.00 60 1010.5
20260507100419 58 35 1.0 2.0 0.00 0.00 0.00 62 1010.2
20260507095921 57 246 0.0 1.0 0.00 0.00 0.00 64 1010.5
20260507095419 56 315 2.0 2.0 0.00 0.00 0.00 65 1010.2
20260507094920 55 248 0.0 0.0 0.00 0.00 0.00 66 1010.2
20260507094419 55 216 0.0 0.0 0.00 0.00 0.00 67 1010.2
20260507093920 54 308 0.0 0.0 0.00 0.00 0.00 68 1010.2
20260507093422 54 217 0.0 2.0 0.00 0.00 0.00 68 1010.5
20260507092922 53 314 1.0 1.0 0.00 0.00 0.00 68 1010.2
20260507092420 53 310 1.0 2.0 0.00 0.00 0.00 69 1010.5
20260507091922 53 222 1.0 2.0 0.00 0.00 0.00 70 1010.2
20260507091418 53 304 2.0 3.0 0.00 0.00 0.00 71 1010.5
20260507090922 53 315 0.0 3.0 0.00 0.00 0.00 71 1010.2
20260507090422 53 322 0.0 1.0 0.00 0.00 0.00 70 1010.5
20260507085918 53 241 0.0 0.0 0.00 0.00 0.00 71 1010.5
20260507085422 53 257 0.0 0.0 0.00 0.00 0.00 71 1010.5
20260507084919 53 126 1.0 1.0 0.00 0.00 0.00 70 1010.2
20260507084419 53 67 0.0 2.0 0.00 0.00 0.00 71 1010.2
20260507083918 54 54 0.0 0.0 0.00 0.00 0.00 72 1010.2
20260507083419 53 58 0.0 0.0 0.00 0.00 0.00 73 1010.2
20260507082920 53 82 0.0 0.0 0.00 0.00 0.00 73 1010.2
20260507082421 53 336 0.0 0.0 0.00 0.00 0.00 73 1010.2
20260507081918 53 294 0.0 1.0 0.00 0.00 0.00 72 1010.2
20260507081418 53 225 0.0 3.0 0.00 0.00 0.00 73 1010.2
20260507080923 53 191 0.0 1.0 0.00 0.00 0.00 74 1010.2
20260507080420 52 324 0.0 1.0 0.00 0.00 0.00 75 1010.2
20260507075923 52 347 1.0 3.0 0.00 0.00 0.00 75 1010.2
20260507075419 52 307 1.0 2.0 0.00 0.00 0.00 76 1010.2
20260507074920 52 185 0.0 3.0 0.00 0.00 0.00 78 1009.8
20260507074421 51 12 1.0 2.0 0.00 0.00 0.00 79 1009.8
20260507073918 51 307 1.0 3.0 0.00 0.00 0.00 80 1010.2
20260507073418 51 313 1.0 2.0 0.00 0.00 0.00 80 1010.2
20260507072921 51 1 0.0 2.0 0.00 0.00 0.00 81 1010.2
20260507072418 50 323 0.0 1.0 0.00 0.00 0.00 82 1010.2
20260507071921 50 337 0.0 2.0 0.00 0.00 0.00 82 1009.8
20260507071419 50 265 0.0 1.0 0.00 0.00 0.00 83 1010.2
20260507070919 50 314 1.0 2.0 0.00 0.00 0.00 83 1009.8
20260507070419 50 293 0.0 0.0 0.00 0.00 0.00 84 1009.8
20260507065921 50 337 1.0 1.0 0.00 0.00 0.00 84 1009.8
20260507065420 49 46 1.0 2.0 0.00 0.00 0.00 85 1010.2
20260507064918 49 133 0.0 1.0 0.00 0.00 0.00 85 1009.8
20260507064421 49 160 0.0 0.0 0.00 0.00 0.00 86 1009.8
20260507063918 49 354 1.0 1.0 0.00 0.00 0.00 86 1009.8
20260507063421 49 332 0.0 0.0 0.00 0.00 0.00 86 1009.8
20260507062918 49 305 0.0 0.0 0.00 0.00 0.00 86 1009.8
20260507062419 49 259 0.0 1.0 0.00 0.00 0.00 86 1009.8
20260507061921 49 208 0.0 1.0 0.00 0.00 0.00 86 1009.8
20260507061419 49 356 0.0 2.0 0.00 0.00 0.00 86 1009.8
20260507060919 49 142 1.0 1.0 0.00 0.00 0.00 86 1009.8
20260507060421 49 322 0.0 1.0 0.00 0.00 0.00 86 1009.8
20260507055919 49 308 0.0 0.0 0.00 0.00 0.00 86 1009.8
20260507055418 49 244 0.0 0.0 0.00 0.00 0.00 86 1009.8
20260507054920 49 242 0.0 0.0 0.00 0.00 0.00 86 1009.8
20260507054419 49 238 0.0 0.0 0.00 0.00 0.00 86 1009.5
20260507053919 49 224 0.0 0.0 0.00 0.00 0.00 85 1009.5
20260507053418 49 217 0.0 0.0 0.00 0.00 0.00 85 1009.5
20260507052919 49 294 1.0 2.0 0.00 0.00 0.00 85 1009.5
20260507052421 49 295 0.0 0.0 0.00 0.00 0.00 85 1009.5
20260507051919 49 330 0.0 1.0 0.00 0.00 0.00 85 1009.5
20260507051418 49 334 1.0 1.0 0.00 0.00 0.00 84 1009.1
20260507050920 49 79 0.0 0.0 0.00 0.00 0.00 84 1009.1
20260507050421 49 331 0.0 1.0 0.00 0.00 0.00 84 1009.5
20260507045919 49 274 0.0 1.0 0.00 0.00 0.00 83 1009.5
20260507045420 49 306 0.0 0.0 0.00 0.00 0.00 84 1009.5
20260507044923 49 317 0.0 1.0 0.00 0.00 0.00 84 1009.5
20260507044418 49 303 1.0 1.0 0.00 0.00 0.00 84 1009.1
20260507043918 49 339 0.0 2.0 0.00 0.00 0.00 84 1009.1
20260507043418 49 312 0.0 2.0 0.00 0.00 0.00 83 1009.1
20260507042918 49 333 1.0 1.0 0.00 0.00 0.00 83 1009.5
20260507042420 49 335 0.0 0.0 0.00 0.00 0.00 84 1009.1
20260507041921 49 333 0.0 1.0 0.00 0.00 0.00 83 1009.1
20260507041419 50 11 0.0 1.0 0.00 0.00 0.00 83 1009.5
20260507040918 50 331 0.0 1.0 0.00 0.00 0.00 83 1009.1
20260507040418 50 285 0.0 0.0 0.00 0.00 0.00 83 1009.5
20260507035920 50 284 0.0 0.0 0.00 0.00 0.00 83 1009.1
20260507035420 50 246 0.0 0.0 0.00 0.00 0.00 82 1009.1
20260507034920 50 320 0.0 0.0 0.00 0.00 0.00 82 1009.1
20260507034419 50 317 0.0 1.0 0.00 0.00 0.00 81 1009.1
20260507033919 50 263 0.0 0.0 0.00 0.00 0.00 81 1009.1
20260507033419 50 291 0.0 0.0 0.00 0.00 0.00 81 1009.1
20260507032919 50 0 0.0 1.0 0.00 0.00 0.00 81 1009.1
20260507032419 51 331 1.0 2.0 0.00 0.00 0.00 81 1008.8
20260507031918 51 265 0.0 0.0 0.00 0.00 0.00 81 1009.1
20260507031422 51 259 0.0 1.0 0.00 0.00 0.00 81 1009.1
20260507030922 51 296 0.0 0.0 0.00 0.00 0.00 81 1009.1
20260507030420 51 227 0.0 0.0 0.00 0.00 0.00 81 1009.1
20260507025919 51 232 0.0 0.0 0.00 0.00 0.00 81 1009.1
20260507025420 51 243 0.0 0.0 0.00 0.00 0.00 81 1009.1
20260507024919 51 260 0.0 0.0 0.00 0.00 0.00 81 1009.1
20260507024418 51 269 0.0 0.0 0.00 0.00 0.00 81 1009.1
20260507023920 51 223 0.0 0.0 0.00 0.00 0.00 81 1009.1
20260507023418 51 221 0.0 0.0 0.00 0.00 0.00 81 1009.1
20260507022923 51 214 0.0 0.0 0.00 0.00 0.00 81 1009.1
20260507022422 51 223 0.0 0.0 0.00 0.00 0.00 81 1009.1
20260507021918 51 237 0.0 0.0 0.00 0.00 0.00 81 1009.1
20260507021422 51 205 0.0 0.0 0.00 0.00 0.00 81 1008.8
20260507020921 51 208 0.0 0.0 0.00 0.00 0.00 81 1008.8
20260507020422 51 186 0.0 0.0 0.00 0.00 0.00 81 1009.1
20260507015921 51 227 0.0 0.0 0.00 0.00 0.00 81 1008.8
20260507015420 51 218 0.0 0.0 0.00 0.00 0.00 81 1008.8
20260507014921 51 210 0.0 0.0 0.00 0.00 0.00 81 1009.1
20260507014421 51 209 0.0 0.0 0.00 0.00 0.00 81 1009.1
20260507013920 50 254 0.0 0.0 0.00 0.00 0.00 81 1008.8
20260507013419 50 270 0.0 0.0 0.00 0.00 0.00 81 1009.1
20260507012920 50 210 0.0 0.0 0.00 0.00 0.00 81 1008.8
20260507012418 50 214 0.0 0.0 0.00 0.00 0.00 81 1009.1
20260507011919 50 233 0.0 0.0 0.00 0.00 0.00 81 1008.8
20260507011421 51 201 0.0 0.0 0.00 0.00 0.00 81 1009.1
20260507010918 50 197 0.0 0.0 0.00 0.00 0.00 81 1008.8
20260507010420 51 208 0.0 0.0 0.00 0.00 0.00 80 1008.8
20260507005921 51 233 0.0 0.0 0.00 0.00 0.00 80 1008.8
20260507005419 51 242 0.0 0.0 0.00 0.00 0.00 80 1008.8
20260507004920 51 223 0.0 0.0 0.00 0.00 0.00 80 1008.8
20260507004420 51 270 0.0 0.0 0.00 0.00 0.00 79 1009.1
20260507003919 51 193 0.0 0.0 0.00 0.00 0.00 79 1009.1
20260507003418 51 228 0.0 0.0 0.00 0.00 0.00 79 1009.1
20260507002920 51 217 0.0 0.0 0.00 0.00 0.00 79 1008.8
20260507002420 51 234 0.0 0.0 0.00 0.00 0.00 78 1008.8
20260507001922 51 245 0.0 1.0 0.00 0.00 0.00 78 1009.1
20260507001418 51 213 0.0 0.0 0.00 0.00 0.00 78 1008.8
20260507000918 51 176 0.0 0.0 0.00 0.00 0.00 78 1009.1
20260507000420 51 224 0.0 0.0 0.00 0.00 0.00 78 1009.1
20260506235922 51 174 0.0 0.0 0.00 0.00 0.00 78 1008.8
20260506235418 51 300 0.0 0.0 0.00 0.00 0.00 77 1009.1
20260506234918 51 248 0.0 0.0 0.00 0.00 0.00 77 1009.1